This is the latest recevied weather packets stored in our database for station/object W2IRT. If no packets are shown the sender has not sent any weather packets the latest 10 day(s).
| Time | Temp. | Humidity | Pressure | Rain* | Wind** | Luminosity | Snow |
|---|---|---|---|---|---|---|---|
| 1777587616 | 15.56° C | 55% | 1006.9 hPa | 0 mm | - | - | - |
| 1777587316 | 15.56° C | 58% | 1007.1 hPa | 0 mm | - | - | - |
| 1777587031 | 15.56° C | 59% | 1007.2 hPa | 0 mm | - | - | - |
| 1777586715 | 15.56° C | 55% | 1007.3 hPa | 0 mm | - | - | - |
| 1777586416 | 15.56° C | 57% | 1007.2 hPa | 0 mm | - | - | - |
| 1777586116 | 15.56° C | 60% | 1007.2 hPa | 0 mm | - | - | - |
| 1777585816 | 16.11° C | 60% | 1007.2 hPa | 0 mm | - | - | - |
| 1777585515 | 16.11° C | 57% | 1007.2 hPa | 0 mm | - | - | - |
| 1777585216 | 16.11° C | 57% | 1007.1 hPa | 0 mm | - | - | - |
| 1777584916 | 16.11° C | 57% | 1007 hPa | 0 mm | - | - | - |
| 1777584616 | 16.11° C | 58% | 1006.9 hPa | 0 mm | - | - | - |
| 1777584316 | 16.11° C | 59% | 1006.7 hPa | 0 mm | - | - | - |
| 1777584016 | 15.56° C | 60% | 1006.7 hPa | 0 mm | - | - | - |
| 1777583716 | 15.56° C | 62% | 1006.8 hPa | 0 mm | - | - | - |
| 1777583415 | 15.56° C | 61% | 1006.8 hPa | 0 mm | - | - | - |
| 1777583116 | 15.56° C | 62% | 1006.7 hPa | 0 mm | - | - | - |
| 1777582826 | 15.56° C | 61% | 1006.6 hPa | 0 mm | - | - | - |
| 1777582521 | 16.11° C | 59% | 1006.6 hPa | 0 mm | - | - | - |
| 1777582215 | 16.11° C | 59% | 1006.5 hPa | 0 mm | - | - | - |
| 1777581916 | 16.11° C | 58% | 1006.4 hPa | 0 mm | - | - | - |
| 1777581617 | 16.11° C | 58% | 1006.3 hPa | 0 mm | - | - | - |
| 1777581316 | 16.11° C | 61% | 1006.2 hPa | 0 mm | - | - | - |
| 1777581016 | 16.11° C | 64% | 1006.1 hPa | 0 mm | - | - | - |
| 1777580716 | 16.11° C | 65% | 1006.1 hPa | 0 mm | - | - | - |
| 1777580421 | 15.56° C | 65% | 1006 hPa | 0 mm | - | - | - |
* Rain latest hour (hover to see other rain measurements)
** Current wind speed in m/s (hover to see current wind gust speed)